Time,TemperatureF,DewpointF,PressureIn,WindDirection,WindDirectionDegrees,WindSpeedMPH,WindSpeedGustMPH,Humidity,HourlyPrecipIn,Conditions,Clouds,dailyrainin,SoftwareType,DateUTC
2013-05-19 00:00:00,64.0,58.0,30.02,NNW,330,20.0,-999.0,80,-99.99,,,-99.99,,2013-05-19 07:00:00,
2013-05-19 00:21:00,64.0,58.0,30.02,NNW,330,20.0,-999.0,80,-99.99,,,-99.99,,2013-05-19 07:21:00,
2013-05-19 00:31:00,64.0,58.0,30.02,NNW,330,20.0,-999.0,80,-99.99,,,-99.99,,2013-05-19 07:31:00,
2013-05-19 00:41:00,64.0,58.0,30.02,NNW,330,20.0,-999.0,80,-99.99,,,-99.99,,2013-05-19 07:41:00,
2013-05-19 00:52:00,64.0,58.0,30.02,NNW,330,20.0,-999.0,80,-99.99,,,-99.99,,2013-05-19 07:52:00,
2013-05-19 02:00:00,62.0,59.0,30.00,NNW,340,28.0,-999.0,89,-99.99,,,-99.99,,2013-05-19 09:00:00,
2013-05-19 02:21:00,62.0,59.0,30.00,NNW,340,28.0,-999.0,89,-99.99,,,-99.99,,2013-05-19 09:21:00,
2013-05-19 02:32:00,62.0,59.0,30.00,NNW,340,28.0,-999.0,89,-99.99,,,-99.99,,2013-05-19 09:32:00,
2013-05-19 02:42:00,62.0,59.0,30.00,NNW,340,28.0,-999.0,89,-99.99,,,-99.99,,2013-05-19 09:42:00,
2013-05-19 02:52:00,62.0,59.0,30.00,NNW,340,28.0,-999.0,89,-99.99,,,-99.99,,2013-05-19 09:52:00,
2013-05-19 05:00:00,62.0,62.0,29.99,North,350,23.0,-999.0,100,-99.99,,,-99.99,,2013-05-19 12:00:00,
2013-05-19 05:21:00,62.0,62.0,29.99,North,350,23.0,-999.0,100,-99.99,,,-99.99,,2013-05-19 12:21:00,
2013-05-19 05:31:00,62.0,62.0,29.99,North,350,23.0,-999.0,100,-99.99,,,-99.99,,2013-05-19 12:31:00,
2013-05-19 05:41:00,62.0,62.0,29.99,North,350,23.0,-999.0,100,-99.99,,,-99.99,,2013-05-19 12:41:00,
2013-05-19 05:52:00,62.0,62.0,29.99,North,350,23.0,-999.0,100,-99.99,,,-99.99,,2013-05-19 12:52:00,
2013-05-19 06:00:00,61.0,56.0,30.02,NNW,340,25.0,-999.0,84,-99.99,,,-99.99,,2013-05-19 13:00:00,
2013-05-19 06:21:00,61.0,56.0,30.02,NNW,340,25.0,-999.0,84,-99.99,,,-99.99,,2013-05-19 13:21:00,
2013-05-19 06:31:00,61.0,56.0,30.02,NNW,340,25.0,-999.0,84,-99.99,,,-99.99,,2013-05-19 13:31:00,
2013-05-19 06:41:00,61.0,56.0,30.02,NNW,340,25.0,-999.0,84,-99.99,,,-99.99,,2013-05-19 13:41:00,
2013-05-19 06:52:00,61.0,56.0,30.02,NNW,340,25.0,-999.0,84,-99.99,,,-99.99,,2013-05-19 13:52:00,
2013-05-19 08:00:00,63.0,53.0,30.00,North,350,26.0,-999.0,70,-99.99,,,-99.99,,2013-05-19 15:00:00,
2013-05-19 08:21:00,63.0,53.0,30.00,North,350,26.0,-999.0,70,-99.99,,,-99.99,,2013-05-19 15:21:00,
2013-05-19 08:32:00,63.0,53.0,30.00,North,350,26.0,-999.0,70,-99.99,,,-99.99,,2013-05-19 15:32:00,
2013-05-19 08:42:00,63.0,53.0,30.00,North,350,26.0,-999.0,70,-99.99,,,-99.99,,2013-05-19 15:42:00,
2013-05-19 08:53:00,63.0,53.0,30.00,North,350,26.0,-999.0,70,-99.99,,,-99.99,,2013-05-19 15:53:00,
2013-05-19 10:00:00,63.0,50.0,30.00,NNW,340,20.0,-999.0,62,-99.99,,,-99.99,,2013-05-19 17:00:00,
2013-05-19 10:22:00,63.0,50.0,30.00,NNW,340,20.0,-999.0,62,-99.99,,,-99.99,,2013-05-19 17:22:00,
2013-05-19 10:31:00,63.0,50.0,30.00,NNW,340,20.0,-999.0,62,-99.99,,,-99.99,,2013-05-19 17:31:00,
2013-05-19 10:42:00,63.0,50.0,30.00,NNW,340,20.0,-999.0,62,-99.99,,,-99.99,,2013-05-19 17:42:00,
2013-05-19 10:52:00,63.0,50.0,30.00,NNW,340,20.0,-999.0,62,-99.99,,,-99.99,,2013-05-19 17:52:00,
2013-05-19 12:00:00,63.0,56.0,30.05,NNW,340,17.0,-999.0,75,-99.99,,,-99.99,,2013-05-19 19:00:00,
2013-05-19 12:21:00,63.0,56.0,30.05,NNW,340,17.0,-999.0,75,-99.99,,,-99.99,,2013-05-19 19:21:00,
2013-05-19 12:31:00,63.0,56.0,30.05,NNW,340,17.0,-999.0,75,-99.99,,,-99.99,,2013-05-19 19:31:00,
2013-05-19 12:41:00,63.0,56.0,30.05,NNW,340,17.0,-999.0,75,-99.99,,,-99.99,,2013-05-19 19:41:00,
2013-05-19 12:52:00,63.0,56.0,30.05,NNW,340,17.0,-999.0,75,-99.99,,,-99.99,,2013-05-19 19:52:00,
2013-05-19 13:00:00,63.0,56.0,30.03,NW,310,18.0,-999.0,75,-99.99,,,-99.99,,2013-05-19 20:00:00,
2013-05-19 13:21:00,63.0,56.0,30.03,NW,310,18.0,-999.0,75,-99.99,,,-99.99,,2013-05-19 20:21:00,
2013-05-19 13:31:00,63.0,56.0,30.03,NW,310,18.0,-999.0,75,-99.99,,,-99.99,,2013-05-19 20:31:00,
2013-05-19 13:41:00,63.0,56.0,30.03,NW,310,18.0,-999.0,75,-99.99,,,-99.99,,2013-05-19 20:41:00,
2013-05-19 13:51:00,63.0,56.0,30.03,NW,310,18.0,-999.0,75,-99.99,,,-99.99,,2013-05-19 20:51:00,
2013-05-19 18:00:00,62.0,57.0,29.97,NW,320,15.0,-999.0,84,-99.99,,,-99.99,,2013-05-20 01:00:00,
2013-05-19 18:21:00,62.0,57.0,29.97,NW,320,15.0,-999.0,84,-99.99,,,-99.99,,2013-05-20 01:21:00,
2013-05-19 18:31:00,62.0,57.0,29.97,NW,320,15.0,-999.0,84,-99.99,,,-99.99,,2013-05-20 01:31:00,
2013-05-19 18:41:00,62.0,57.0,29.97,NW,320,15.0,-999.0,84,-99.99,,,-99.99,,2013-05-20 01:41:00,
2013-05-19 18:52:00,62.0,57.0,29.97,NW,320,15.0,-999.0,84,-99.99,,,-99.99,,2013-05-20 01:52:00,
2013-05-19 20:00:00,60.0,58.0,29.93,NW,310,18.0,-999.0,94,-99.99,,,-99.99,,2013-05-20 03:00:00,
2013-05-19 20:21:00,60.0,58.0,29.93,NW,310,18.0,-999.0,94,-99.99,,,-99.99,,2013-05-20 03:21:00,
2013-05-19 20:33:00,60.0,58.0,29.93,NW,310,18.0,-999.0,94,-99.99,,,-99.99,,2013-05-20 03:33:00,
2013-05-19 20:42:00,60.0,58.0,29.93,NW,310,18.0,-999.0,94,-99.99,,,-99.99,,2013-05-20 03:42:00,
2013-05-19 20:52:00,60.0,58.0,29.93,NW,310,18.0,-999.0,94,-99.99,,,-99.99,,2013-05-20 03:52:00,
2013-05-19 21:00:00,60.0,58.0,29.94,NW,320,9.0,-999.0,94,-99.99,,,-99.99,,2013-05-20 04:00:00,
2013-05-19 21:22:00,60.0,58.0,29.94,NW,320,9.0,-999.0,94,-99.99,,,-99.99,,2013-05-20 04:22:00,
2013-05-19 21:33:00,60.0,58.0,29.94,NW,320,9.0,-999.0,94,-99.99,,,-99.99,,2013-05-20 04:33:00,
2013-05-19 21:42:00,60.0,58.0,29.94,NW,320,9.0,-999.0,94,-99.99,,,-99.99,,2013-05-20 04:42:00,
2013-05-19 21:52:00,60.0,58.0,29.94,NW,320,9.0,-999.0,94,-99.99,,,-99.99,,2013-05-20 04:52:00,